#timestamp,LO_Frequency,Hit 
1501462815.3,286047017.7,N
1501462835.1,286047020.0,N
1501462836.0,286047020.0,N
1501462855.8,286047019.8,N
1501462875.7,286047020.4,N
1501462895.5,286047021.1,N
1501462915.3,286047022.8,N
1501462935.1,286047026.8,N
1501462955.9,286047026.8,N
1501462975.7,286047026.6,N
1501462995.5,286047028.4,N
1501463015.4,286047026.5,N
1501463035.2,286047023.2,N
1501463055.0,286047021.5,N
1501463055.9,286047021.5,N
1501463075.8,286047022.0,N
1501463095.6,286047019.8,N
1501463115.4,286047018.2,N
1501463135.3,286047019.6,N
1501463155.1,286047021.9,N
1501463156.0,286047021.9,N
1501463175.8,286047020.3,N
1501463195.6,286047019.9,N
1501463215.5,286047018.3,N
1501463235.3,286047018.2,N
1501463255.1,286047020.3,N
1501463275.9,286047019.0,N
1501463295.7,286047022.0,N
1501463315.5,286047019.4,N
1501463335.4,286047016.1,N
1501463355.2,286047016.8,N
1501463375.0,286047016.7,N
1501463375.9,286047016.7,N
1501463395.8,286047016.0,N
1501463415.6,286047018.0,N
1501463435.4,286047019.9,N
1501463455.2,286047017.8,N
1501463475.1,286047018.3,N
1501463476.0,286047018.3,N
1501463495.8,286047018.5,N
1501463515.6,286047018.7,N
1501463535.5,286047017.5,N
1501463555.3,286047020.3,N
1501463575.1,286047019.5,N
1501463595.9,286047019.0,N
1501463615.7,286047020.0,N
1501463635.5,286047019.8,N
1501463655.4,286047021.9,N
1501463675.2,286047020.3,N
1501463695.0,286047021.2,N
1501463695.9,286047021.2,N
1501463715.8,286047023.6,N
1501463735.6,286047024.7,N
1501463755.4,286047025.9,N
1501463775.2,286047028.1,N
1501463795.1,286047025.8,N
1501463796.0,286047025.8,N
1501463815.8,286047027.7,N
1501463835.6,286047027.6,N
1501463855.5,286047025.9,N
1501463875.3,286047026.7,N
1501463895.1,286047022.2,N
1501463915.9,286047020.6,N
1501463935.7,286047023.3,N
1501463955.5,286047021.0,N
1501463975.4,286047023.3,N
1501463995.2,286047023.4,N
1501464015.0,286047022.2,N
1501464015.9,286047022.2,N
1501464035.8,286047022.1,N
1501464055.6,286047024.1,N
1501464075.4,286047024.3,N
1501464095.2,286047024.2,N
1501464115.1,286047024.2,N
1501464116.0,286047024.2,N
1501464135.8,286047022.1,N
1501464155.6,286047023.8,N
1501464175.5,286047026.8,N
1501464195.3,286047028.0,N
1501464215.1,286047025.5,N
1501464235.9,286047026.0,N
1501464255.7,286047025.7,N
1501464275.5,286047024.6,N
1501464295.4,286047024.3,N
1501464315.2,286047026.2,N
1501464335.0,286047023.7,N
1501464335.9,286047023.7,N
1501464355.7,286047026.2,N
1501464375.6,286047024.0,N
1501464395.4,286047024.0,N
1501464415.2,286047026.0,N
1501464435.1,286047025.5,N
1501464436.0,286047025.5,N
1501464455.8,286047025.7,N
1501464475.6,286047027.1,N
1501464495.5,286047027.6,N
1501464515.3,286047029.6,N
1501464535.1,286047030.0,N
1501464555.9,286047029.4,N
1501464575.7,286047031.5,N
1501464595.5,286047028.7,N
1501464615.3,286047029.1,N
1501464635.2,286047028.7,N
1501464655.0,286047029.7,N
1501464655.9,286047029.7,N
1501464675.7,286047028.9,N
1501464695.6,286047028.6,N
1501464715.4,286047031.1,N
1501464735.2,286047030.6,N
1501464755.1,286047028.8,N
1501464756.0,286047028.8,N
1501464775.8,286047029.9,N
1501464795.6,286047031.2,N
1501464815.5,286047029.1,N
1501464835.3,286047028.7,N
1501464855.1,286047031.5,N
1501464875.9,286047031.0,N
1501464895.7,286047030.3,N
1501464915.5,286047028.9,N
1501464935.4,286047029.0,N
1501464955.2,286047031.6,N
1501464975.0,286047029.1,N
1501464975.9,286047029.1,N
1501464995.7,286047031.3,N
1501465015.6,286047028.5,N
1501465035.4,286047030.8,N
1501465055.2,286047030.6,N
1501465075.1,286047031.0,N
1501465076.0,286047031.0,N
1501465095.8,286047028.7,N
1501465115.6,286047028.6,N
1501465135.5,286047031.3,N
1501465155.3,286047029.4,N
1501465175.1,286047028.9,N
1501465195.9,286047031.6,N
1501465215.7,286047033.2,N
1501465235.5,286047032.3,N
1501465255.3,286047031.5,N
1501465275.2,286047030.5,N
1501465295.0,286047033.1,N
1501465295.9,286047033.1,N
1501465315.7,286047032.3,N
1501465335.6,286047031.9,N
1501465355.4,286047032.6,N
1501465375.2,286047034.3,N
1501465395.1,286047031.8,N
1501465396.0,286047031.8,N
1501465415.8,286047034.7,N
1501465435.6,286047034.2,N
1501465455.5,286047032.0,N
1501465475.3,286047034.4,N
1501465495.1,286047031.8,N
1501465515.9,286047034.5,N
1501465535.7,286047034.5,N
1501465555.5,286047034.4,N
1501465575.3,286047033.9,N
1501465595.2,286047034.3,N
1501465615.0,286047034.5,N
1501465615.9,286047034.5,N
1501465635.7,286047034.0,N
1501465655.6,286047034.6,N
1501465675.4,286047033.9,N
1501465695.2,286047034.7,N
1501465715.1,286047034.6,N
1501465716.0,286047034.6,N
1501465735.8,286047033.6,N
1501465755.6,286047033.7,N
1501465775.5,286047035.1,N
1501465795.3,286047036.1,N
1501465815.1,286047035.7,N
1501465835.8,286047037.4,N
1501465855.7,286047036.9,N
1501465875.5,286047034.9,N
1501465895.3,286047037.7,N
1501465915.2,286047036.1,N
1501465935.9,286047035.5,N
1501465955.7,286047035.4,N
1501465975.6,286047035.8,N
1501465995.4,286047035.4,N
1501466015.2,286047035.3,N
1501466035.1,286047037.4,N
1501466036.0,286047037.4,N
1501466055.8,286047037.8,N
1501466075.6,286047037.5,N
1501466095.4,286047035.1,N
1501466115.3,286047039.5,N
1501466135.1,286047038.7,N
1501466155.8,286047039.3,N
1501466175.7,286047038.7,N
1501466195.5,286047038.8,N
1501466215.3,286047038.8,N
1501466235.2,286047039.1,N
1501466255.9,286047036.5,N
1501466275.7,286047040.7,N
1501466295.6,286047041.1,N
1501466315.4,286047038.6,N
1501466335.2,286047039.5,N
1501466355.0,286047036.8,N
1501466355.9,286047036.8,N
1501466375.8,286047039.1,N
1501466395.6,286047038.3,N
